Weather History for PAKW - April, 2014

Change the Weather History Date:

Tuesday, April 22, 2014

  Actual Average Record
Temperature  
Mean Temperature 37 °F -  
Max Temperature 46 °F 50 °F 66 °F (1997)
Min Temperature 28 °F 34 °F 27 °F (2008)
Degree Days  
Heating Degree Days 28    
Moisture  
Dew Point 34 °F    
Average Humidity 94    
Maximum Humidity 100    
Minimum Humidity 68    
Precipitation  
Precipitation 0.00 in - - ()
Sea Level Pressure  
Sea Level Pressure 29.82 in    
Wind  
Wind Speed 1 mph (SW)    
Max Wind Speed 7 mph    
Max Gust Speed -    
Visibility 5 miles    
Events Fog    
Averages and records for this station are not official NWS values.
T = Trace of Precipitation, MM = Missing Value Source: NWS Daily Summary

Daily Weather History Graph

Daily Weather History Graph

Search for Another Location

Airport or City:

Trip Planner

Search our weather history database for the weather conditions in past years. The results will help you decide how hot, cold, wet, or windy it might be!

Date:

Astronomy

Apr. 22, 2014 Rise Set
Actual Time 5:30 AM AKDT 8:12 PM AKDT
Civil Twilight 4:49 AM AKDT 8:54 PM AKDT
Nautical Twilight 3:55 AM AKDT 9:48 PM AKDT
Astronomical Twilight 2:46 AM AKDT 10:59 PM AKDT
Moon 2:37 AM AKDT 12:12 PM AKDT
Length of Visible Light 16h 05m
Length of Day
14h 42m
Last Quarter, 44% of the Moon is Illuminated
Apr 22
Last Quarter
Apr 28
New
May 6
First Quarter
May 14
Full
May 21
Last Quarter

Hourly Weather History & Observations

Time (AKDT) Temp. Windchill Dew Point Humidity Pressure Visibility Wind Dir Wind Speed Gust Speed Precip Events Conditions
12:00 AM 30.9 °F - 30.9 °F 100% 29.92 in 1.8 mi Calm Calm - N/A   Scattered Clouds
12:03 AM 30.9 °F - 30.9 °F 100% 29.92 in 1.2 mi Calm Calm - N/A   Mostly Cloudy
12:12 AM 32.0 °F - 32.0 °F 100% 29.92 in 0.8 mi Calm Calm - N/A   Mist
12:15 AM 32.0 °F - 32.0 °F 100% 29.92 in 1.5 mi Calm Calm - N/A   Scattered Clouds
12:17 AM 32.0 °F - 32.0 °F 100% 29.92 in 3.0 mi Calm Calm - N/A   Scattered Clouds
12:40 AM 30.9 °F - 30.9 °F 100% 29.91 in 2.0 mi Calm Calm - N/A   Partly Cloudy
12:51 AM 30.2 °F - 30.2 °F 100% 29.91 in 5.0 mi Calm Calm - N/A   Partly Cloudy
1:04 AM 30.9 °F - 30.9 °F 100% 29.90 in 1.5 mi Calm Calm - N/A   Mist
1:09 AM 30.0 °F - 30.0 °F 100% 29.90 in 0.8 mi Calm Calm - N/A   Mist
1:30 AM 30.0 °F - 30.0 °F 100% 29.90 in 0.8 mi Calm Calm - N/A   Mist
1:53 AM 30.0 °F - 30.0 °F 100% 29.89 in 1.2 mi Calm Calm - N/A   Scattered Clouds
2:01 AM 28.9 °F - 28.9 °F 100% 29.89 in 1.5 mi Calm Calm - N/A   Scattered Clouds
2:07 AM 30.0 °F - 30.0 °F 100% 29.88 in 3.0 mi Calm Calm - N/A   Scattered Clouds
2:25 AM 30.0 °F - 30.0 °F 100% 29.88 in 1.2 mi Calm Calm - N/A   Partly Cloudy
2:27 AM 30.0 °F - 30.0 °F 100% 29.88 in 0.8 mi Calm Calm - N/A   Mist
2:53 AM 30.0 °F - 30.0 °F 100% 29.87 in 0.5 mi Calm Calm - N/A Fog Light Freezing Fog
3:53 AM 30.0 °F - 30.0 °F 100% 29.86 in 0.2 mi Calm Calm - N/A Fog Light Freezing Fog
4:37 AM 30.0 °F - 30.0 °F 100% 29.84 in 0.5 mi Calm Calm - N/A Fog Light Freezing Fog
4:53 AM 30.0 °F - 30.0 °F 100% 29.84 in 0.2 mi Calm Calm - N/A Fog Light Freezing Fog
5:53 AM 30.0 °F - 30.0 °F 100% 29.83 in 0.2 mi Calm Calm - N/A Fog Light Freezing Fog
6:53 AM 30.0 °F - 30.0 °F 100% 29.81 in 0.2 mi Calm Calm - N/A Fog Light Freezing Fog
7:53 AM 30.9 °F - 30.9 °F 100% 29.80 in 0.2 mi Calm Calm - N/A Fog Light Freezing Fog
8:44 AM 34.0 °F - 34.0 °F 100% 29.78 in 1.5 mi Calm Calm - N/A   Overcast
8:47 AM 33.8 °F - 33.8 °F 100% 29.78 in 3.0 mi Calm Calm - N/A   Overcast
8:53 AM 35.1 °F 32.2 °F 35.1 °F 100% 29.78 in 3.0 mi SSW 3.5 mph - N/A   Overcast
8:59 AM 35.1 °F 30.1 °F 35.1 °F 100% 29.77 in 1.8 mi WSW 5.8 mph - N/A   Overcast
9:06 AM 35.1 °F 30.1 °F 35.1 °F 100% 29.78 in 0.8 mi WSW 5.8 mph - N/A   Mist
9:55 AM 37.0 °F - 37.0 °F 100% 29.77 in 2.0 mi Calm Calm - N/A   Overcast
10:03 AM 37.0 °F 34.5 °F 37.0 °F 100% 29.77 in 5.0 mi SSW 3.5 mph - N/A   Overcast
10:44 AM 39.9 °F 37.8 °F 39.9 °F 100% 29.77 in 10.0 mi South 3.5 mph - N/A   Overcast
10:53 AM 39.0 °F - 39.0 °F 100% 29.77 in 10.0 mi Calm Calm - N/A   Overcast
11:26 AM 41.0 °F 38.0 °F 39.9 °F 96% 29.76 in 10.0 mi SSW 4.6 mph - N/A   Partly Cloudy
11:53 AM 44.1 °F 41.5 °F 41.0 °F 89% 29.75 in 10.0 mi SSW 4.6 mph - N/A   Clear
12:53 PM 46.0 °F 43.9 °F 39.0 °F 76% 29.74 in 10.0 mi SSW 4.6 mph - N/A   Clear
1:53 PM 46.9 °F - 39.9 °F 77% 29.75 in 10.0 mi West 5.8 mph - N/A   Partly Cloudy
2:53 PM 46.9 °F - 37.0 °F 68% 29.76 in 10.0 mi Variable 5.8 mph - N/A   Partly Cloudy
3:53 PM 46.9 °F - 39.0 °F 74% 29.75 in 10.0 mi WSW 5.8 mph - N/A   Mostly Cloudy
4:53 PM 46.0 °F 43.9 °F 37.0 °F 71% 29.76 in 10.0 mi SSW 4.6 mph - N/A   Mostly Cloudy
5:53 PM 45.0 °F 42.6 °F 37.0 °F 74% 29.75 in 10.0 mi SSW 4.6 mph - N/A   Mostly Cloudy
6:53 PM 43.0 °F 39.5 °F 37.9 °F 82% 29.75 in 10.0 mi South 5.8 mph - N/A   Mostly Cloudy
7:35 PM 42.1 °F 38.4 °F 37.9 °F 85% 29.76 in 10.0 mi WSW 5.8 mph - N/A   Overcast
7:53 PM 42.1 °F 37.7 °F 37.9 °F 85% 29.77 in 10.0 mi SW 6.9 mph - N/A   Overcast
8:53 PM 41.0 °F 39.0 °F 37.9 °F 89% 29.78 in 10.0 mi Variable 3.5 mph - N/A   Overcast
9:53 PM 41.0 °F - 37.9 °F 89% 29.78 in 10.0 mi Calm Calm - N/A   Overcast
10:53 PM 39.9 °F - 37.9 °F 93% 29.78 in 10.0 mi Calm Calm - N/A   Overcast
11:53 PM 39.9 °F 35.8 °F 37.0 °F 89% 29.79 in 10.0 mi SW 5.8 mph - N/A   Overcast